Location: Newark
(46.6500°N, 7.5500°E)
Time: 20:36:54
(UTC+00:00)

N. Korean satellite - Visible Passes

Search period start: 19 February 2020 00:00
Search period end: 29 February 2020 00:00
Orbit: 456 x 505 km, 97.2° (Epoch: 19 February)

Date Brightness Start Highest point End Pass type
(mag) Time Alt. Az. Time Alt. Az. Time Alt. Az.
19 Feb 9.6 04:27:05 10° NE 04:29:47 19° E 04:32:28 10° SE visible
20 Feb 6.6 05:34:06 10° N 05:37:49 69° WNW 05:41:30 10° SSW visible
21 Feb 7.4 05:08:35 10° NNE 05:12:16 57° E 05:15:56 10° S visible
22 Feb 8.8 04:43:22 10° NE 04:46:38 28° E 04:49:53 10° SSE visible
23 Feb 9.9 04:18:40 10° NE 04:20:55 15° E 04:23:08 10° SE visible
23 Feb 7.0 05:50:58 10° N 05:54:31 43° WNW 05:58:01 10° SW visible
24 Feb 6.6 05:25:17 10° NNE 05:29:01 88° WNW 05:32:44 10° SSW visible
24 Feb 10.3 17:38:42 10° WSW 17:40:18 12° W 17:41:56 10° WNW visible
25 Feb 7.9 04:59:51 10° NNE 05:03:27 45° E 05:06:59 10° S visible
26 Feb 9.3 04:34:46 10° NE 04:37:47 23° E 04:40:45 10° SSE visible
27 Feb 10.1 04:10:27 10° ENE 04:12:00 12° E 04:13:32 10° ESE visible
27 Feb 6.7 05:42:05 10° N 05:45:43 54° WNW 05:49:18 10° SSW visible
28 Feb 6.9 05:16:29 10° NNE 05:20:12 73° ESE 05:23:52 10° S visible
